2023/01/24 00:00:00,44.8,-0.7
2023/01/24 00:10:00,44.8,-0.6
2023/01/24 00:20:00,44.8,-0.8
2023/01/24 00:30:00,44.8,-0.7
2023/01/24 00:40:00,44.8,-0.6
2023/01/24 00:50:00,44.8,-0.6
2023/01/24 01:00:00,44.7,-0.6
2023/01/24 01:10:00,44.7,-0.6
2023/01/24 01:20:00,44.6,-0.5
2023/01/24 01:30:00,44.6,-0.5
2023/01/24 01:40:00,44.6,-0.5
2023/01/24 01:50:00,44.6,-0.4
2023/01/24 02:00:00,44.6,-0.7
2023/01/24 02:10:00,44.6,-0.3
2023/01/24 02:20:00,44.6,-0.4
2023/01/24 02:30:00,44.6, 0.0
2023/01/24 02:40:00,44.9, 0.0
2023/01/24 02:50:00,45.1, 0.2
2023/01/24 03:00:00,45.1, 0.0
2023/01/24 03:10:00,45.0,-0.1
2023/01/24 03:20:00,45.0,-0.3
2023/01/24 03:30:00,45.0,-0.3
2023/01/24 03:40:00,45.0,-0.4
2023/01/24 03:50:00,45.0,-0.1
2023/01/24 04:00:00,45.0,-0.4
2023/01/24 04:10:00,44.9,-0.5
2023/01/24 04:20:00,44.9,-0.5
2023/01/24 04:30:00,44.9,-0.5
2023/01/24 04:40:00,44.9,-0.7
2023/01/24 04:50:00,44.9,-1.0
2023/01/24 05:00:00,45.0,-1.0
2023/01/24 05:10:00,44.9,-1.3
2023/01/24 05:20:00,44.9,-1.3
2023/01/24 05:30:00,44.9,-1.4
2023/01/24 05:40:00,44.9,-1.4
2023/01/24 05:50:00,44.9,-1.2
2023/01/24 06:00:00,44.9,-0.8
2023/01/24 06:10:00,44.8,-0.9
2023/01/24 06:20:00,44.8,-1.1
2023/01/24 06:30:00,44.8,-1.1
2023/01/24 06:40:00,44.8,-1.1
2023/01/24 06:50:00,45.0,-1.4
2023/01/24 07:00:00,45.5,-1.6
2023/01/24 07:10:00,45.9,-1.9
2023/01/24 07:20:00,46.2,-1.5
2023/01/24 07:30:00,46.5,-1.9
2023/01/24 07:40:00,46.5,-1.9
2023/01/24 07:50:00,46.5,-1.7
2023/01/24 08:00:00,46.4,-1.7
2023/01/24 08:10:00,46.5,-2.0
2023/01/24 08:20:00,47.0,-2.4
2023/01/24 08:30:00,47.5,-1.9
2023/01/24 08:40:00,47.6,-2.2
2023/01/24 08:50:00,47.6,-1.9
2023/01/24 09:00:00,47.9,-1.9
2023/01/24 09:10:00,48.2,-1.9
2023/01/24 09:20:00,48.6,-2.3
2023/01/24 09:30:00,49.0,-2.3
2023/01/24 09:40:00,49.1,-2.2
2023/01/24 09:50:00,49.5,-2.3
2023/01/24 10:00:00,49.8,-2.3
2023/01/24 10:10:00,50.1,-2.1
2023/01/24 10:20:00,50.4,-2.7
2023/01/24 10:30:00,50.6,-2.7
2023/01/24 10:40:00,50.8,-3.0
2023/01/24 10:50:00,51.2,-2.9
2023/01/24 11:00:00,51.7,-3.3
2023/01/24 11:10:00,52.3,-3.6
2023/01/24 11:20:00,53.3,-3.5
2023/01/24 11:30:00,54.1,-3.3
2023/01/24 11:40:00,54.7,-3.7
2023/01/24 11:50:00,55.8,-3.1
2023/01/24 12:00:00,56.2,-2.0
2023/01/24 12:10:00,56.6,-2.7
2023/01/24 12:20:00,56.6,-3.0
2023/01/24 12:30:00,56.7,-3.2
2023/01/24 12:40:00,56.7,-2.8
2023/01/24 12:50:00,56.7,-3.9
2023/01/24 13:00:00,56.7,-3.5
2023/01/24 13:10:00,56.8,-4.2
2023/01/24 13:20:00,56.8,-4.3
2023/01/24 13:30:00,56.7,-4.3
2023/01/24 13:40:00,56.7,-4.3
2023/01/24 13:50:00,56.6,-4.0
2023/01/24 14:00:00,56.5,-1.8
2023/01/24 14:10:00,56.5,-3.2
2023/01/24 14:20:00,56.5,-2.8
2023/01/24 14:30:00,56.4,-3.3
2023/01/24 14:40:00,56.5,-4.7
2023/01/24 14:50:00,56.5,-5.6
2023/01/24 15:00:00,56.5,-6.4
2023/01/24 15:10:00,56.6,-7.2
2023/01/24 15:20:00,56.7,-7.1
2023/01/24 15:30:00,57.0,-7.0
2023/01/24 15:40:00,57.7,-7.0
2023/01/24 15:50:00,60.1,-7.1
2023/01/24 16:00:00,62.4,-7.1
2023/01/24 16:10:00,64.8,-7.1
2023/01/24 16:20:00,66.4,-7.2
2023/01/24 16:30:00,68.3,-7.2
2023/01/24 16:40:00,70.9,-7.4
2023/01/24 16:50:00,73.3,-7.2
2023/01/24 17:00:00,75.1,-7.5
2023/01/24 17:10:00,76.9,-7.4
2023/01/24 17:20:00,77.7,-7.4
2023/01/24 17:30:00,78.2,-7.5
2023/01/24 17:40:00,78.8,-7.2
2023/01/24 17:50:00,79.2,-7.3
2023/01/24 18:00:00,80.0,-7.3
2023/01/24 18:10:00,81.2,-7.2
2023/01/24 18:20:00,82.9,-7.2
2023/01/24 18:30:00,84.6,-7.3
2023/01/24 18:40:00,85.8,-7.6
2023/01/24 18:50:00,87.1,-7.7
2023/01/24 19:00:00,88.0,-7.7
2023/01/24 19:10:00,88.9,-7.8
2023/01/24 19:20:00,89.9,-8.2
2023/01/24 19:30:00,90.5,-8.4
2023/01/24 19:40:00,90.5,-8.1
2023/01/24 19:50:00,90.8,-8.1
2023/01/24 20:00:00,91.9,-8.2
2023/01/24 20:10:00,92.7,-8.5
2023/01/24 20:20:00,93.4,-8.4
2023/01/24 20:30:00,94.0,-8.8
2023/01/24 20:40:00,94.4,-8.5
2023/01/24 20:50:00,95.1,-8.6
2023/01/24 21:00:00,95.9,-8.4
2023/01/24 21:10:00,96.6,-8.5
2023/01/24 21:20:00,97.3,-8.3
2023/01/24 21:30:00,98.2,-8.4
2023/01/24 21:40:00,99.0,-9.1
2023/01/24 21:50:00,99.9,-8.7
2023/01/24 22:00:00,100.5,-8.8
2023/01/24 22:10:00,101.1,-8.5
2023/01/24 22:20:00,101.5,-8.8
2023/01/24 22:30:00,101.8,-8.8
2023/01/24 22:40:00,102.0,-8.7
2023/01/24 22:50:00,102.6,-8.8
2023/01/24 23:00:00,103.4,-8.8
2023/01/24 23:10:00,104.1,-8.9
2023/01/24 23:20:00,104.5,-8.8
2023/01/24 23:30:00,104.9,-9.3
2023/01/24 23:40:00,105.2,-9.1
2023/01/24 23:50:00,105.4,-9.1
